| time (UTC) | temp F | wind direction | speed MPH | gust MPH | rain 1hr in | rain 24hr in | rain mn in | humidity % | barometer mb |
| 20260506023852 | 74 | 300 | 0.0 | 2.0 | 0.00 | 0.00 | 0.00 | 40 | 1009.9 |
| 20260506023319 | 75 | 265 | 0.0 | 2.0 | 0.00 | 0.00 | 0.00 | 40 | 1009.9 |
| 20260506022827 | 75 | 281 | 0.0 | 3.0 | 0.00 | 0.00 | 0.00 | 37 | 1009.8 |
| 20260506022336 | 75 | 327 | 1.0 | 5.0 | 0.00 | 0.00 | 0.00 | 36 | 1009.7 |
| 20260506021827 | 75 | 316 | 1.0 | 5.0 | 0.00 | 0.00 | 0.00 | 37 | 1009.7 |
| 20260506021325 | 75 | 344 | 2.0 | 4.0 | 0.00 | 0.00 | 0.00 | 36 | 1009.7 |
| 20260506020835 | 76 | 348 | 2.0 | 4.0 | 0.00 | 0.00 | 0.00 | 36 | 1009.6 |
| 20260506020325 | 76 | 3 | 1.0 | 4.0 | 0.00 | 0.00 | 0.00 | 36 | 1009.5 |
| 20260506015830 | 76 | 357 | 2.0 | 4.0 | 0.00 | 0.00 | 0.00 | 34 | 1009.4 |
| 20260506015320 | 76 | 9 | 2.0 | 7.0 | 0.00 | 0.00 | 0.00 | 34 | 1009.5 |
| 20260506014829 | 77 | 353 | 2.0 | 7.0 | 0.00 | 0.00 | 0.00 | 34 | 1009.4 |
| 20260506014322 | 77 | 10 | 2.0 | 5.0 | 0.00 | 0.00 | 0.00 | 35 | 1009.4 |
| 20260506013832 | 77 | 327 | 2.0 | 6.0 | 0.00 | 0.00 | 0.00 | 35 | 1009.4 |
| 20260506013343 | 77 | 320 | 2.0 | 6.0 | 0.00 | 0.00 | 0.00 | 35 | 1009.3 |
| 20260506012836 | 78 | 3 | 3.0 | 6.0 | 0.00 | 0.00 | 0.00 | 36 | 1009.2 |
| 20260506012346 | 78 | 295 | 1.0 | 3.0 | 0.00 | 0.00 | 0.00 | 39 | 1009.2 |
| 20260506011836 | 78 | 267 | 1.0 | 5.0 | 0.00 | 0.00 | 0.00 | 38 | 1009.2 |
| 20260506011330 | 78 | 310 | 1.0 | 5.0 | 0.00 | 0.00 | 0.00 | 38 | 1009.2 |
| 20260506010841 | 78 | 309 | 1.0 | 2.0 | 0.00 | 0.00 | 0.00 | 40 | 1009.2 |
| 20260506010333 | 78 | 300 | 1.0 | 4.0 | 0.00 | 0.00 | 0.00 | 39 | 1009.2 |
| 20260506005827 | 78 | 157 | 0.0 | 4.0 | 0.00 | 0.00 | 0.00 | 40 | 1009.2 |
| 20260506005335 | 78 | 300 | 1.0 | 4.0 | 0.00 | 0.00 | 0.00 | 39 | 1009.2 |
| 20260506004824 | 78 | 317 | 1.0 | 4.0 | 0.00 | 0.00 | 0.00 | 40 | 1009.2 |
| 20260506004351 | 78 | 285 | 1.0 | 4.0 | 0.00 | 0.00 | 0.00 | 39 | 1009.1 |
| 20260506003819 | 78 | 16 | 2.0 | 4.0 | 0.00 | 0.00 | 0.00 | 40 | 1009.1 |
| 20260506003329 | 78 | 295 | 1.0 | 3.0 | 0.00 | 0.00 | 0.00 | 40 | 1009.1 |
| 20260506002821 | 78 | 309 | 1.0 | 4.0 | 0.00 | 0.00 | 0.00 | 40 | 1009.1 |
| 20260506002331 | 78 | 295 | 1.0 | 4.0 | 0.00 | 0.00 | 0.00 | 42 | 1009.1 |
| 20260506001842 | 78 | 338 | 1.0 | 5.0 | 0.00 | 0.00 | 0.00 | 42 | 1009.1 |
| 20260506001328 | 78 | 3 | 3.0 | 5.0 | 0.00 | 0.00 | 0.00 | 41 | 1009.1 |
| 20260506000818 | 78 | 7 | 2.0 | 4.0 | 0.00 | 0.00 | 0.00 | 42 | 1009.1 |
| 20260506000329 | 78 | 276 | 2.0 | 3.0 | 0.00 | 0.00 | 0.00 | 42 | 1009.1 |
| 20260505235820 | 78 | 16 | 1.0 | 4.0 | 0.00 | 0.00 | 0.00 | 42 | 1009.1 |
| 20260505235329 | 78 | 313 | 2.0 | 4.0 | 0.00 | 0.00 | 0.00 | 41 | 1009.1 |
| 20260505234823 | 78 | 6 | 1.0 | 4.0 | 0.00 | 0.00 | 0.00 | 40 | 1009.1 |
| 20260505234328 | 79 | 5 | 1.0 | 5.0 | 0.00 | 0.00 | 0.00 | 41 | 1009.1 |
| 20260505233819 | 79 | 74 | 2.0 | 5.0 | 0.00 | 0.00 | 0.00 | 40 | 1009.1 |
| 20260505233329 | 79 | 290 | 1.0 | 4.0 | 0.00 | 0.00 | 0.00 | 40 | 1009.2 |
| 20260505232822 | 79 | 344 | 2.0 | 4.0 | 0.00 | 0.00 | 0.00 | 40 | 1009.2 |
| 20260505232351 | 79 | 163 | 1.0 | 4.0 | 0.00 | 0.00 | 0.00 | 41 | 1009.2 |
| 20260505231819 | 78 | 285 | 2.0 | 5.0 | 0.00 | 0.00 | 0.00 | 41 | 1009.3 |
| 20260505231334 | 78 | 10 | 2.0 | 6.0 | 0.00 | 0.00 | 0.00 | 42 | 1009.4 |
| 20260505230845 | 78 | 5 | 4.0 | 6.0 | 0.00 | 0.00 | 0.00 | 43 | 1009.4 |
| 20260505230333 | 78 | 326 | 2.0 | 6.0 | 0.00 | 0.00 | 0.00 | 42 | 1009.4 |
| 20260505225826 | 79 | 23 | 2.0 | 6.0 | 0.00 | 0.00 | 0.00 | 41 | 1009.5 |
| 20260505225336 | 79 | 18 | 2.0 | 5.0 | 0.00 | 0.00 | 0.00 | 42 | 1009.6 |
| 20260505224830 | 79 | 324 | 2.0 | 8.0 | 0.00 | 0.00 | 0.00 | 41 | 1009.7 |
| 20260505224322 | 78 | 305 | 2.0 | 8.0 | 0.00 | 0.00 | 0.00 | 42 | 1009.7 |
| 20260505223852 | 78 | 305 | 2.0 | 8.0 | 0.00 | 0.00 | 0.00 | 43 | 1009.7 |
| 20260505223322 | 78 | 10 | 3.0 | 8.0 | 0.00 | 0.00 | 0.00 | 43 | 1009.8 |
| 20260505222836 | 77 | 205 | 1.0 | 8.0 | 0.00 | 0.00 | 0.00 | 45 | 1009.9 |
| 20260505222325 | 76 | 20 | 5.0 | 8.0 | 0.00 | 0.00 | 0.00 | 43 | 1009.9 |
| 20260505221854 | 76 | 340 | 4.0 | 6.0 | 0.00 | 0.00 | 0.00 | 45 | 1009.9 |
| 20260505221324 | 77 | 266 | 2.0 | 9.0 | 0.00 | 0.00 | 0.00 | 45 | 1009.9 |
| 20260505220835 | 77 | 7 | 3.0 | 9.0 | 0.00 | 0.00 | 0.00 | 46 | 1010.1 |
| 20260505220326 | 77 | 35 | 3.0 | 6.0 | 0.00 | 0.00 | 0.00 | 43 | 1010.2 |
| 20260505215819 | 77 | 6 | 1.0 | 8.0 | 0.00 | 0.00 | 0.00 | 43 | 1010.2 |
| 20260505215329 | 77 | 275 | 2.0 | 8.0 | 0.00 | 0.00 | 0.00 | 41 | 1010.2 |
| 20260505214840 | 77 | 255 | 2.0 | 6.0 | 0.00 | 0.00 | 0.00 | 39 | 1010.2 |
| 20260505214319 | 76 | 346 | 1.0 | 6.0 | 0.00 | 0.00 | 0.00 | 45 | 1010.4 |
| 20260505213830 | 76 | 23 | 2.0 | 8.0 | 0.00 | 0.00 | 0.00 | 42 | 1010.4 |
| 20260505213321 | 75 | 358 | 3.0 | 8.0 | 0.00 | 0.00 | 0.00 | 44 | 1010.5 |
| 20260505212828 | 75 | 18 | 2.0 | 7.0 | 0.00 | 0.00 | 0.00 | 46 | 1010.5 |
| 20260505212317 | 75 | 11 | 1.0 | 4.0 | 0.00 | 0.00 | 0.00 | 49 | 1010.6 |
| 20260505211828 | 74 | 269 | 2.0 | 4.0 | 0.00 | 0.00 | 0.00 | 46 | 1010.6 |
| 20260505211341 | 74 | 47 | 1.0 | 5.0 | 0.00 | 0.00 | 0.00 | 49 | 1010.7 |
| 20260505210829 | 75 | 103 | 1.0 | 5.0 | 0.00 | 0.00 | 0.00 | 46 | 1010.8 |
| 20260505210319 | 74 | 8 | 2.0 | 6.0 | 0.00 | 0.00 | 0.00 | 50 | 1010.8 |
| 20260505205846 | 74 | 346 | 3.0 | 5.0 | 0.00 | 0.00 | 0.00 | 47 | 1010.8 |
| 20260505205335 | 75 | 344 | 1.0 | 3.0 | 0.00 | 0.00 | 0.00 | 48 | 1010.8 |
| 20260505204826 | 74 | 265 | 1.0 | 4.0 | 0.00 | 0.00 | 0.00 | 51 | 1011.0 |
| 20260505204342 | 73 | 20 | 1.0 | 10.0 | 0.00 | 0.00 | 0.00 | 50 | 1011.0 |
| 20260505203830 | 73 | 106 | 1.0 | 10.0 | 0.00 | 0.00 | 0.00 | 50 | 1011.0 |
| 20260505203323 | 73 | 345 | 2.0 | 6.0 | 0.00 | 0.00 | 0.00 | 53 | 1011.1 |
| 20260505202830 | 73 | 277 | 1.0 | 6.0 | 0.00 | 0.00 | 0.00 | 52 | 1011.2 |
| 20260505202320 | 72 | 151 | 1.0 | 6.0 | 0.00 | 0.00 | 0.00 | 53 | 1011.3 |
| 20260505201831 | 72 | 19 | 2.0 | 8.0 | 0.00 | 0.00 | 0.00 | 54 | 1011.3 |
| 20260505201324 | 71 | 26 | 3.0 | 8.0 | 0.00 | 0.00 | 0.00 | 52 | 1011.4 |
| 20260505200832 | 70 | 38 | 3.0 | 8.0 | 0.00 | 0.00 | 0.00 | 54 | 1011.5 |
| 20260505200322 | 70 | 22 | 2.0 | 8.0 | 0.00 | 0.00 | 0.00 | 56 | 1011.6 |
| 20260505195830 | 69 | 9 | 4.0 | 8.0 | 0.00 | 0.00 | 0.00 | 54 | 1011.6 |
| 20260505195340 | 69 | 36 | 4.0 | 8.0 | 0.00 | 0.00 | 0.00 | 54 | 1011.6 |
| 20260505194828 | 70 | 83 | 4.0 | 8.0 | 0.00 | 0.00 | 0.00 | 55 | 1011.6 |
| 20260505194323 | 70 | 10 | 2.0 | 8.0 | 0.00 | 0.00 | 0.00 | 53 | 1011.7 |
| 20260505193833 | 70 | 24 | 3.0 | 8.0 | 0.00 | 0.00 | 0.00 | 55 | 1011.7 |
| 20260505193325 | 70 | 12 | 3.0 | 5.0 | 0.00 | 0.00 | 0.00 | 55 | 1011.8 |
| 20260505192818 | 70 | 28 | 1.0 | 6.0 | 0.00 | 0.00 | 0.00 | 56 | 1011.8 |
| 20260505192328 | 69 | 300 | 2.0 | 6.0 | 0.00 | 0.00 | 0.00 | 55 | 1011.8 |
| 20260505191839 | 69 | 340 | 2.0 | 6.0 | 0.00 | 0.00 | 0.00 | 58 | 1011.9 |
| 20260505191331 | 69 | 11 | 3.0 | 5.0 | 0.00 | 0.00 | 0.00 | 56 | 1011.9 |
| 20260505190822 | 69 | 68 | 1.0 | 4.0 | 0.00 | 0.00 | 0.00 | 56 | 1011.9 |
| 20260505190331 | 68 | 28 | 2.0 | 6.0 | 0.00 | 0.00 | 0.00 | 58 | 1011.9 |
| 20260505185821 | 68 | 328 | 2.0 | 6.0 | 0.00 | 0.00 | 0.00 | 58 | 1012.0 |
| 20260505185332 | 68 | 326 | 1.0 | 5.0 | 0.00 | 0.00 | 0.00 | 58 | 1012.1 |
| 20260505184821 | 67 | 354 | 1.0 | 5.0 | 0.00 | 0.00 | 0.00 | 59 | 1012.1 |
| 20260505184325 | 68 | 6 | 3.0 | 6.0 | 0.00 | 0.00 | 0.00 | 57 | 1012.2 |
| 20260505183834 | 67 | 24 | 1.0 | 5.0 | 0.00 | 0.00 | 0.00 | 61 | 1012.2 |
| 20260505183329 | 67 | 232 | 2.0 | 5.0 | 0.00 | 0.00 | 0.00 | 57 | 1012.2 |
| 20260505182823 | 67 | 355 | 2.0 | 3.0 | 0.00 | 0.00 | 0.00 | 61 | 1012.3 |
| 20260505182333 | 66 | 286 | 1.0 | 3.0 | 0.00 | 0.00 | 0.00 | 60 | 1012.3 |
| 20260505181823 | 66 | 179 | 1.0 | 3.0 | 0.00 | 0.00 | 0.00 | 60 | 1012.2 |
| 20260505181330 | 66 | 213 | 1.0 | 5.0 | 0.00 | 0.00 | 0.00 | 58 | 1012.3 |
| 20260505180839 | 66 | 23 | 2.0 | 5.0 | 0.00 | 0.00 | 0.00 | 61 | 1012.3 |
| 20260505180328 | 66 | 41 | 1.0 | 4.0 | 0.00 | 0.00 | 0.00 | 65 | 1012.4 |
| 20260505175819 | 65 | 358 | 1.0 | 5.0 | 0.00 | 0.00 | 0.00 | 64 | 1012.4 |
| 20260505175329 | 64 | 128 | 1.0 | 5.0 | 0.00 | 0.00 | 0.00 | 61 | 1012.5 |
| 20260505174818 | 64 | 180 | 1.0 | 3.0 | 0.00 | 0.00 | 0.00 | 66 | 1012.5 |
| 20260505174324 | 63 | 188 | 1.0 | 2.0 | 0.00 | 0.00 | 0.00 | 64 | 1012.5 |
| 20260505173835 | 64 | 290 | 1.0 | 3.0 | 0.00 | 0.00 | 0.00 | 64 | 1012.5 |
| 20260505173329 | 63 | 274 | 1.0 | 3.0 | 0.00 | 0.00 | 0.00 | 67 | 1012.5 |
| 20260505172821 | 62 | 275 | 1.0 | 3.0 | 0.00 | 0.00 | 0.00 | 70 | 1012.5 |
| 20260505172331 | 62 | 171 | 1.0 | 4.0 | 0.00 | 0.00 | 0.00 | 69 | 1012.5 |
| 20260505171821 | 62 | 15 | 2.0 | 4.0 | 0.00 | 0.00 | 0.00 | 67 | 1012.6 |
| 20260505171354 | 63 | 9 | 1.0 | 4.0 | 0.00 | 0.00 | 0.00 | 67 | 1012.6 |
| 20260505170842 | 62 | 182 | 1.0 | 4.0 | 0.00 | 0.00 | 0.00 | 70 | 1012.6 |
| 20260505170329 | 62 | 3 | 1.0 | 4.0 | 0.00 | 0.00 | 0.00 | 70 | 1012.6 |
| 20260505165822 | 62 | 17 | 2.0 | 4.0 | 0.00 | 0.00 | 0.00 | 73 | 1012.7 |
| 20260505165330 | 61 | 71 | 2.0 | 4.0 | 0.00 | 0.00 | 0.00 | 72 | 1012.7 |
| 20260505164820 | 61 | 283 | 1.0 | 3.0 | 0.00 | 0.00 | 0.00 | 71 | 1012.8 |
| 20260505164335 | 61 | 330 | 1.0 | 3.0 | 0.00 | 0.00 | 0.00 | 73 | 1012.8 |
| 20260505163825 | 60 | 312 | 1.0 | 2.0 | 0.00 | 0.00 | 0.00 | 73 | 1012.8 |
| 20260505163335 | 60 | 339 | 0.0 | 3.0 | 0.00 | 0.00 | 0.00 | 75 | 1012.8 |
| 20260505162849 | 59 | 332 | 1.0 | 3.0 | 0.00 | 0.00 | 0.00 | 75 | 1012.7 |
| 20260505162322 | 59 | 320 | 1.0 | 2.0 | 0.00 | 0.00 | 0.00 | 75 | 1012.7 |
| 20260505161852 | 58 | 305 | 1.0 | 2.0 | 0.00 | 0.00 | 0.00 | 76 | 1012.8 |
| 20260505161323 | 58 | 354 | 1.0 | 2.0 | 0.00 | 0.00 | 0.00 | 75 | 1012.8 |
| 20260505160833 | 57 | 309 | 0.0 | 2.0 | 0.00 | 0.00 | 0.00 | 76 | 1012.8 |
| 20260505160324 | 57 | 18 | 1.0 | 3.0 | 0.00 | 0.00 | 0.00 | 78 | 1012.9 |
| 20260505153318 | 56 | 295 | 0.0 | 0.0 | 0.00 | 0.00 | 0.00 | 81 | 1012.8 |
| 20260505152850 | 55 | 295 | 0.0 | 1.0 | 0.00 | 0.00 | 0.00 | 81 | 1012.8 |
| 20260505152318 | 55 | 295 | 0.0 | 1.0 | 0.00 | 0.00 | 0.00 | 83 | 1012.8 |
| 20260505151827 | 55 | 295 | 0.0 | 1.0 | 0.00 | 0.00 | 0.00 | 83 | 1012.8 |
| 20260505151322 | 55 | 295 | 0.0 | 1.0 | 0.00 | 0.00 | 0.00 | 83 | 1012.7 |
| 20260505150831 | 55 | 295 | 0.0 | 1.0 | 0.00 | 0.00 | 0.00 | 84 | 1012.7 |
| 20260505150324 | 54 | 295 | 0.0 | 1.0 | 0.00 | 0.00 | 0.00 | 84 | 1012.7 |
| 20260505140331 | 52 | 295 | 0.0 | 1.0 | 0.00 | 0.00 | 0.00 | 87 | 1012.3 |
| 20260505124821 | 52 | 295 | 0.0 | 1.0 | 0.00 | 0.00 | 0.00 | 88 | 1011.7 |
| 20260505124317 | 52 | 295 | 0.0 | 1.0 | 0.00 | 0.00 | 0.00 | 88 | 1011.6 |
| 20260505123827 | 52 | 340 | 0.0 | 1.0 | 0.00 | 0.00 | 0.00 | 88 | 1011.6 |
| 20260505123318 | 52 | 343 | 0.0 | 1.0 | 0.00 | 0.00 | 0.00 | 88 | 1011.6 |
| 20260505122823 | 52 | 356 | 0.0 | 1.0 | 0.00 | 0.00 | 0.00 | 88 | 1011.5 |
| 20260505122351 | 52 | 3 | 0.0 | 0.0 | 0.00 | 0.00 | 0.00 | 89 | 1011.5 |
| 20260505121818 | 52 | 3 | 0.0 | 0.0 | 0.00 | 0.00 | 0.00 | 89 | 1011.5 |
| 20260505121343 | 51 | 3 | 0.0 | 0.0 | 0.00 | 0.00 | 0.00 | 88 | 1011.4 |
| 20260505120851 | 51 | 3 | 0.0 | 0.0 | 0.00 | 0.00 | 0.00 | 88 | 1011.4 |
| 20260505120320 | 51 | 3 | 0.0 | 0.0 | 0.00 | 0.00 | 0.00 | 88 | 1011.3 |
| 20260505115825 | 51 | 3 | 0.0 | 0.0 | 0.00 | 0.00 | 0.00 | 89 | 1011.3 |
| 20260505115334 | 51 | 3 | 0.0 | 0.0 | 0.00 | 0.00 | 0.00 | 89 | 1011.2 |
| 20260505114828 | 51 | 3 | 0.0 | 0.0 | 0.00 | 0.00 | 0.00 | 89 | 1011.2 |
| 20260505114320 | 51 | 3 | 0.0 | 0.0 | 0.00 | 0.00 | 0.00 | 89 | 1011.2 |
| 20260505113829 | 51 | 3 | 0.0 | 0.0 | 0.00 | 0.00 | 0.00 | 89 | 1011.1 |
| 20260505113318 | 51 | 3 | 0.0 | 0.0 | 0.00 | 0.00 | 0.00 | 89 | 1011.1 |
| 20260505112831 | 50 | 3 | 0.0 | 0.0 | 0.00 | 0.00 | 0.00 | 89 | 1011.1 |
| 20260505112321 | 50 | 3 | 0.0 | 0.0 | 0.00 | 0.00 | 0.00 | 89 | 1011.1 |
| 20260505111831 | 50 | 3 | 0.0 | 0.0 | 0.00 | 0.00 | 0.00 | 89 | 1011.0 |
| 20260505111321 | 50 | 3 | 0.0 | 0.0 | 0.00 | 0.00 | 0.00 | 89 | 1011.0 |
| 20260505110850 | 50 | 3 | 0.0 | 0.0 | 0.00 | 0.00 | 0.00 | 89 | 1011.0 |
| 20260505110319 | 50 | 3 | 0.0 | 0.0 | 0.00 | 0.00 | 0.00 | 89 | 1011.0 |
| 20260505101816 | 50 | 3 | 0.0 | 0.0 | 0.00 | 0.01 | 0.00 | 88 | 1010.8 |
| 20260505101331 | 50 | 3 | 0.0 | 0.0 | 0.00 | 0.01 | 0.00 | 88 | 1010.8 |
| 20260505100821 | 50 | 3 | 0.0 | 0.0 | 0.00 | 0.01 | 0.00 | 87 | 1010.7 |
| 20260505100350 | 50 | 3 | 0.0 | 0.0 | 0.00 | 0.01 | 0.00 | 87 | 1010.7 |
| 20260505095841 | 51 | 3 | 0.0 | 0.0 | 0.00 | 0.01 | 0.00 | 86 | 1010.8 |
| 20260505095330 | 51 | 3 | 0.0 | 0.0 | 0.00 | 0.01 | 0.00 | 86 | 1010.8 |
| 20260505094820 | 51 | 3 | 0.0 | 0.0 | 0.00 | 0.01 | 0.00 | 85 | 1010.8 |
| 20260505094318 | 52 | 3 | 0.0 | 1.0 | 0.00 | 0.01 | 0.00 | 86 | 1010.8 |
| 20260505093828 | 52 | 3 | 0.0 | 1.0 | 0.00 | 0.01 | 0.00 | 85 | 1010.7 |
| 20260505093318 | 52 | 3 | 0.0 | 1.0 | 0.00 | 0.01 | 0.00 | 85 | 1010.8 |
| 20260505092832 | 52 | 3 | 0.0 | 1.0 | 0.00 | 0.01 | 0.00 | 85 | 1010.8 |
| 20260505092322 | 52 | 3 | 0.0 | 1.0 | 0.00 | 0.01 | 0.00 | 84 | 1010.8 |
| 20260505091831 | 52 | 3 | 0.0 | 2.0 | 0.00 | 0.01 | 0.00 | 85 | 1010.8 |
| 20260505091324 | 52 | 3 | 1.0 | 2.0 | 0.00 | 0.01 | 0.00 | 84 | 1010.7 |
| 20260505090854 | 52 | 295 | 0.0 | 2.0 | 0.00 | 0.01 | 0.00 | 84 | 1010.7 |
| 20260505090322 | 52 | 243 | 0.0 | 2.0 | 0.00 | 0.01 | 0.00 | 84 | 1010.7 |
| 20260505085829 | 52 | 215 | 0.0 | 1.0 | 0.00 | 0.01 | 0.00 | 84 | 1010.7 |
| 20260505085358 | 53 | 215 | 0.0 | 1.0 | 0.00 | 0.01 | 0.00 | 83 | 1010.7 |
| 20260505084827 | 53 | 217 | 0.0 | 2.0 | 0.00 | 0.01 | 0.00 | 83 | 1010.7 |
| 20260505084340 | 53 | 214 | 0.0 | 2.0 | 0.00 | 0.01 | 0.00 | 83 | 1010.7 |
| 20260505083829 | 53 | 214 | 0.0 | 1.0 | 0.00 | 0.01 | 0.00 | 82 | 1010.6 |
| 20260505083322 | 54 | 254 | 0.0 | 1.0 | 0.00 | 0.01 | 0.00 | 82 | 1010.6 |
| 20260505082827 | 54 | 254 | 0.0 | 1.0 | 0.00 | 0.01 | 0.00 | 81 | 1010.6 |
| 20260505082335 | 54 | 254 | 0.0 | 2.0 | 0.00 | 0.01 | 0.00 | 81 | 1010.6 |
| 20260505081824 | 54 | 254 | 0.0 | 2.0 | 0.00 | 0.01 | 0.00 | 80 | 1010.6 |
| 20260505081330 | 55 | 295 | 1.0 | 2.0 | 0.00 | 0.01 | 0.00 | 80 | 1010.5 |
| 20260505080820 | 55 | 326 | 1.0 | 3.0 | 0.00 | 0.01 | 0.00 | 79 | 1010.5 |
| 20260505080330 | 55 | 326 | 1.0 | 3.0 | 0.00 | 0.01 | 0.00 | 79 | 1010.5 |
| 20260505075824 | 55 | 357 | 1.0 | 3.0 | 0.00 | 0.01 | 0.00 | 79 | 1010.5 |
| 20260505075334 | 55 | 319 | 1.0 | 3.0 | 0.00 | 0.01 | 0.00 | 78 | 1010.4 |
| 20260505074824 | 56 | 360 | 1.0 | 3.0 | 0.00 | 0.01 | 0.00 | 78 | 1010.4 |
| 20260505074336 | 56 | 314 | 0.0 | 3.0 | 0.00 | 0.01 | 0.00 | 78 | 1010.4 |
| 20260505073845 | 56 | 312 | 1.0 | 3.0 | 0.00 | 0.01 | 0.00 | 78 | 1010.4 |
| 20260505073334 | 56 | 317 | 1.0 | 3.0 | 0.00 | 0.01 | 0.00 | 77 | 1010.3 |
| 20260505072829 | 56 | 30 | 1.0 | 3.0 | 0.00 | 0.01 | 0.00 | 77 | 1010.3 |
| 20260505072322 | 56 | 354 | 1.0 | 2.0 | 0.00 | 0.01 | 0.00 | 77 | 1010.3 |
| 20260505071853 | 57 | 317 | 1.0 | 4.0 | 0.00 | 0.01 | 0.00 | 77 | 1010.2 |
| 20260505071324 | 57 | 359 | 1.0 | 4.0 | 0.00 | 0.01 | 0.00 | 76 | 1010.2 |
| 20260505070835 | 57 | 1 | 2.0 | 4.0 | 0.00 | 0.01 | 0.00 | 76 | 1010.1 |
| 20260505070323 | 57 | 336 | 1.0 | 4.0 | 0.00 | 0.01 | 0.00 | 76 | 1010.1 |
| 20260505065848 | 57 | 1 | 2.0 | 4.0 | 0.00 | 0.01 | 0.01 | 76 | 1010.0 |
| 20260505065337 | 57 | 2 | 2.0 | 3.0 | 0.00 | 0.01 | 0.01 | 76 | 1009.9 |
| 20260505064827 | 57 | 354 | 1.0 | 3.0 | 0.00 | 0.01 | 0.01 | 75 | 1009.9 |
| 20260505064340 | 57 | 9 | 2.0 | 4.0 | 0.00 | 0.01 | 0.01 | 75 | 1009.8 |
| 20260505063831 | 58 | 8 | 2.0 | 4.0 | 0.00 | 0.01 | 0.01 | 74 | 1009.8 |
| 20260505063323 | 58 | 7 | 2.0 | 4.0 | 0.00 | 0.01 | 0.01 | 74 | 1009.7 |
| 20260505062837 | 58 | 9 | 1.0 | 3.0 | 0.00 | 0.01 | 0.01 | 73 | 1009.7 |
| 20260505062347 | 59 | 353 | 1.0 | 3.0 | 0.00 | 0.01 | 0.01 | 73 | 1009.6 |
| 20260505061820 | 59 | 300 | 1.0 | 3.0 | 0.00 | 0.01 | 0.01 | 73 | 1009.5 |
| 20260505061334 | 59 | 290 | 1.0 | 3.0 | 0.00 | 0.01 | 0.01 | 72 | 1009.5 |
| 20260505060824 | 59 | 305 | 1.0 | 3.0 | 0.00 | 0.01 | 0.01 | 72 | 1009.4 |
| 20260505060334 | 59 | 346 | 1.0 | 4.0 | 0.00 | 0.01 | 0.01 | 72 | 1009.4 |
| 20260505055828 | 59 | 288 | 1.0 | 5.0 | 0.00 | 0.01 | 0.01 | 72 | 1009.3 |
| 20260505055318 | 60 | 319 | 1.0 | 5.0 | 0.00 | 0.01 | 0.01 | 71 | 1009.3 |
| 20260505054849 | 60 | 336 | 1.0 | 3.0 | 0.00 | 0.01 | 0.01 | 71 | 1009.2 |
| 20260505054322 | 60 | 288 | 1.0 | 3.0 | 0.00 | 0.01 | 0.01 | 71 | 1009.1 |
| 20260505053832 | 60 | 335 | 1.0 | 3.0 | 0.00 | 0.01 | 0.01 | 70 | 1009.1 |
| 20260505053322 | 61 | 334 | 1.0 | 4.0 | 0.00 | 0.01 | 0.01 | 70 | 1009.0 |
| 20260505052818 | 61 | 339 | 1.0 | 4.0 | 0.00 | 0.01 | 0.01 | 69 | 1009.0 |
| 20260505052348 | 61 | 311 | 1.0 | 4.0 | 0.00 | 0.01 | 0.01 | 69 | 1008.9 |
| 20260505051839 | 61 | 251 | 1.0 | 3.0 | 0.00 | 0.01 | 0.01 | 68 | 1008.8 |
| 20260505051332 | 62 | 259 | 1.0 | 3.0 | 0.00 | 0.01 | 0.01 | 68 | 1008.8 |
| 20260505050828 | 62 | 310 | 1.0 | 3.0 | 0.00 | 0.01 | 0.01 | 67 | 1008.8 |
| 20260505050318 | 62 | 285 | 1.0 | 3.0 | 0.00 | 0.01 | 0.01 | 67 | 1008.7 |
| 20260505041327 | 64 | 241 | 1.0 | 4.0 | 0.00 | 0.01 | 0.01 | 63 | 1007.8 |
| 20260505040836 | 64 | 311 | 1.0 | 4.0 | 0.00 | 0.01 | 0.01 | 63 | 1007.7 |
| 20260505040330 | 65 | 256 | 1.0 | 4.0 | 0.00 | 0.01 | 0.01 | 62 | 1007.6 |
| 20260505035822 | 65 | 305 | 1.0 | 5.0 | 0.00 | 0.01 | 0.01 | 62 | 1007.6 |
| 20260505035333 | 65 | 328 | 1.0 | 5.0 | 0.00 | 0.01 | 0.01 | 62 | 1007.4 |
| 20260505034824 | 66 | 351 | 1.0 | 5.0 | 0.00 | 0.01 | 0.01 | 61 | 1007.4 |
| 20260505034330 | 66 | 273 | 1.0 | 4.0 | 0.00 | 0.01 | 0.01 | 60 | 1007.3 |
| 20260505033840 | 67 | 344 | 2.0 | 3.0 | 0.00 | 0.01 | 0.01 | 58 | 1007.1 |
| 20260505033350 | 67 | 5 | 1.0 | 5.0 | 0.00 | 0.01 | 0.01 | 58 | 1007.0 |
| 20260505032825 | 67 | 216 | 1.0 | 5.0 | 0.00 | 0.01 | 0.01 | 58 | 1006.9 |
| 20260505032337 | 67 | 338 | 1.0 | 6.0 | 0.00 | 0.01 | 0.01 | 58 | 1006.8 |
| 20260505031847 | 68 | 279 | 2.0 | 6.0 | 0.00 | 0.01 | 0.01 | 57 | 1006.7 |
| 20260505031323 | 68 | 329 | 1.0 | 5.0 | 0.00 | 0.01 | 0.01 | 56 | 1006.7 |
| 20260505030833 | 69 | 282 | 2.0 | 6.0 | 0.00 | 0.01 | 0.01 | 56 | 1006.6 |
| 20260505030325 | 69 | 305 | 2.0 | 8.0 | 0.00 | 0.01 | 0.01 | 55 | 1006.5 |
| 20260505025818 | 70 | 305 | 2.0 | 8.0 | 0.00 | 0.01 | 0.01 | 55 | 1006.4 |
| 20260505025333 | 70 | 263 | 2.0 | 5.0 | 0.00 | 0.01 | 0.01 | 55 | 1006.4 |
| 20260505024823 | 71 | 189 | 1.0 | 3.0 | 0.00 | 0.01 | 0.01 | 54 | 1006.3 |
| 20260505024327 | 71 | 12 | 1.0 | 4.0 | 0.00 | 0.01 | 0.01 | 53 | 1006.3 |